• In Latvia
  • List of Countries
  • For 7 days
  • Water Temperature
  • Satellite Maps
  • Weather Map
  • Weather Widgets
  • user-avatar
    Login

    Hourly Weather Elenovskoe

    Today, 26 September, Wednesday

    Time Temperature Precipitation Wind Pressure Humidity
    00:00 +13°C° 0.4 mm 3 mps 760 mmHg 82%
    01:00 +14°C° 0.1 mm 2 mps 760 mmHg 81%
    02:00 +14°C° 0.1 mm 2 mps 761 mmHg 80%
    03:00 +14°C° 0 mm 1 mps 761 mmHg 81%
    04:00 +14°C° 0.1 mm 2 mps 761 mmHg 80%
    05:00 +14°C° 0.1 mm 2 mps 762 mmHg 79%
    06:00 +13°C° 0.1 mm 2 mps 762 mmHg 78%
    07:00 +14°C° 0 mm 2 mps 762 mmHg 74%
    08:00 +15°C° 0 mm 2 mps 762 mmHg 69%
    09:00 +16°C° 0 mm 2 mps 763 mmHg 64%
    10:00 +16°C° 0 mm 3 mps 763 mmHg 59%
    11:00 +17°C° 0 mm 3 mps 763 mmHg 53%
    12:00 +18°C° 0 mm 3 mps 763 mmHg 47%
    13:00 +18°C° 0 mm 3 mps 763 mmHg 45%
    14:00 +19°C° 0 mm 3 mps 763 mmHg 43%
    15:00 +19°C° 0 mm 3 mps 763 mmHg 41%
    16:00 +18°C° 0 mm 3 mps 763 mmHg 43%
    17:00 +17°C° 0 mm 3 mps 764 mmHg 45%
    18:00 +17°C° 0 mm 2 mps 764 mmHg 47%
    19:00 +16°C° 0 mm 2 mps 764 mmHg 50%
    20:00 +14°C° 0 mm 3 mps 764 mmHg 52%
    21:00 +13°C° 0 mm 3 mps 765 mmHg 54%
    22:00 +13°C° 0 mm 3 mps 765 mmHg 56%
    23:00 +13°C° 0 mm 2 mps 765 mmHg 58%

    Tomorrow, 27 September, Thursday

    Time Temperature Precipitation Wind Pressure Humidity
    00:00 +12°C° 0 mm 2 mps 765 mmHg 61%
    01:00 +12°C° 0 mm 2 mps 765 mmHg 62%
    02:00 +12°C° 0 mm 2 mps 765 mmHg 63%
    03:00 +10°C° 0 mm 2 mps 765 mmHg 65%
    04:00 +10°C° 0 mm 2 mps 765 mmHg 66%
    05:00 +10°C° 0 mm 2 mps 765 mmHg 67%
    06:00 +9°C° 0 mm 2 mps 765 mmHg 69%
    07:00 +12°C° 0 mm 2 mps 765 mmHg 63%
    08:00 +14°C° 0 mm 2 mps 765 mmHg 57%
    09:00 +15°C° 0 mm 2 mps 765 mmHg 51%
    10:00 +17°C° 0 mm 2 mps 765 mmHg 47%
    11:00 +18°C° 0 mm 2 mps 765 mmHg 42%
    12:00 +19°C° 0 mm 2 mps 764 mmHg 38%
    13:00 +20°C° 0 mm 2 mps 764 mmHg 36%
    14:00 +20°C° 0 mm 2 mps 764 mmHg 35%
    15:00 +21°C° 0 mm 2 mps 763 mmHg 33%
    16:00 +20°C° 0 mm 2 mps 763 mmHg 36%
    17:00 +19°C° 0 mm 2 mps 763 mmHg 39%
    18:00 +17°C° 0 mm 2 mps 763 mmHg 42%
    19:00 +16°C° 0 mm 2 mps 763 mmHg 45%
    20:00 +15°C° 0 mm 2 mps 764 mmHg 48%
    21:00 +13°C° 0 mm 3 mps 764 mmHg 52%
    22:00 +13°C° 0 mm 2 mps 764 mmHg 55%
    23:00 +12°C° 0 mm 1 mps 764 mmHg 58%

    Day after tomorrow, 28 September, Friday

    Time Temperature Precipitation Wind Pressure Humidity
    00:00 +11°C° 0 mm 1 mps 764 mmHg 61%
    01:00 +11°C° 0 mm 1 mps 764 mmHg 62%
    02:00 +10°C° 0 mm 0 mps 764 mmHg 63%
    03:00 +9°C° 0 mm 0 mps 764 mmHg 65%
    04:00 +9°C° 0 mm 0 mps 764 mmHg 65%
    05:00 +9°C° 0 mm 0 mps 763 mmHg 65%
    06:00 +10°C° 0 mm 1 mps 763 mmHg 66%
    07:00 +12°C° 0 mm 1 mps 763 mmHg 59%
    08:00 +13°C° 0 mm 1 mps 763 mmHg 53%
    09:00 +15°C° 0 mm 1 mps 763 mmHg 46%
    10:00 +18°C° 0 mm 1 mps 762 mmHg 43%
    11:00 +20°C° 0 mm 1 mps 762 mmHg 39%
    12:00 +22°C° 0 mm 1 mps 762 mmHg 35%
    13:00 +23°C° 0 mm 1 mps 761 mmHg 35%
    14:00 +24°C° 0 mm 1 mps 761 mmHg 35%
    15:00 +24°C° 0 mm 1 mps 760 mmHg 35%
    16:00 +23°C° 0 mm 1 mps 760 mmHg 39%
    17:00 +22°C° 0 mm 1 mps 760 mmHg 43%
    18:00 +21°C° 0 mm 1 mps 759 mmHg 46%
    19:00 +19°C° 0 mm 2 mps 759 mmHg 48%
    20:00 +18°C° 0 mm 2 mps 759 mmHg 49%
    21:00 +17°C° 0 mm 2 mps 759 mmHg 51%
    22:00 +17°C° 0 mm 2 mps 759 mmHg 51%
    23:00 +16°C° 0 mm 1 mps 759 mmHg 52%

    29 September, Saturday

    Time Temperature Precipitation Wind Pressure Humidity
    00:00 +16°C° 0 mm 1 mps 758 mmHg 53%
    01:00 +15°C° 0 mm 1 mps 758 mmHg 54%
    02:00 +15°C° 0 mm 1 mps 758 mmHg 55%
    03:00 +15°C° 0 mm 1 mps 758 mmHg 57%
    04:00 +14°C° 0 mm 1 mps 758 mmHg 58%
    05:00 +14°C° 0 mm 1 mps 758 mmHg 59%
    06:00 +14°C° 0 mm 1 mps 758 mmHg 60%
    07:00 +16°C° 0 mm 1 mps 758 mmHg 56%
    08:00 +18°C° 0 mm 1 mps 757 mmHg 53%
    09:00 +20°C° 0 mm 1 mps 757 mmHg 49%
    10:00 +22°C° 0 mm 1 mps 757 mmHg 46%
    11:00 +24°C° 0 mm 2 mps 757 mmHg 43%
    12:00 +26°C° 0 mm 2 mps 756 mmHg 40%
    13:00 +26°C° 0 mm 1 mps 756 mmHg 39%
    14:00 +27°C° 0 mm 1 mps 756 mmHg 38%
    15:00 +27°C° 0 mm 1 mps 755 mmHg 37%
    16:00 +26°C° 0 mm 1 mps 755 mmHg 41%
    17:00 +25°C° 0 mm 1 mps 755 mmHg 45%
    18:00 +24°C° 0 mm 1 mps 755 mmHg 49%
    19:00 +23°C° 0 mm 1 mps 755 mmHg 51%
    20:00 +22°C° 0 mm 1 mps 755 mmHg 53%
    21:00 +20°C° 0 mm 2 mps 756 mmHg 55%
    22:00 +21°C° 0 mm 1 mps 756 mmHg 57%
    23:00 +20°C° 0 mm 1 mps 755 mmHg 59%

    30 September, Sunday

    Time Temperature Precipitation Wind Pressure Humidity
    00:00 +20°C° 0 mm 1 mps 755 mmHg 60%
    01:00 +19°C° 0 mm 1 mps 755 mmHg 62%
    02:00 +19°C° 0 mm 1 mps 755 mmHg 63%
    03:00 +19°C° 0 mm 1 mps 755 mmHg 65%
    04:00 +18°C° 0 mm 1 mps 755 mmHg 66%
    05:00 +18°C° 0 mm 1 mps 755 mmHg 68%
    06:00 +16°C° 0 mm 1 mps 756 mmHg 69%
    07:00 +19°C° 0 mm 1 mps 756 mmHg 64%
    08:00 +21°C° 0 mm 1 mps 756 mmHg 60%
    09:00 +22°C° 0 mm 1 mps 756 mmHg 55%
    10:00 +23°C° 0 mm 2 mps 756 mmHg 52%
    11:00 +25°C° 0 mm 2 mps 756 mmHg 50%
    12:00 +26°C° 0 mm 3 mps 756 mmHg 47%
    13:00 +26°C° 0.1 mm 4 mps 756 mmHg 50%
    14:00 +25°C° 0.1 mm 4 mps 756 mmHg 52%
    15:00 +23°C° 0.1 mm 5 mps 756 mmHg 55%
    16:00 +22°C° 0.2 mm 5 mps 757 mmHg 60%
    17:00 +21°C° 0.2 mm 5 mps 757 mmHg 64%
    18:00 +20°C° 0.2 mm 5 mps 757 mmHg 69%
    19:00 +19°C° 0.1 mm 5 mps 757 mmHg 71%
    20:00 +19°C° 0.1 mm 5 mps 758 mmHg 72%
    21:00 +17°C° 0.1 mm 5 mps 758 mmHg 74%
    22:00 +17°C° 0 mm 6 mps 758 mmHg 75%
    23:00 +16°C° 0 mm 6 mps 758 mmHg 75%

    1 October, Monday

    Time Temperature Precipitation Wind Pressure Humidity
    00:00 +16°C° 0 mm 6 mps 758 mmHg 76%
    01:00 +15°C° 0 mm 6 mps 758 mmHg 76%
    02:00 +15°C° 0 mm 6 mps 758 mmHg 76%
    03:00 +15°C° 0 mm 6 mps 758 mmHg 76%
    04:00 +14°C° 0 mm 6 mps 758 mmHg 76%
    05:00 +14°C° 0 mm 6 mps 758 mmHg 76%
    06:00 +14°C° 0 mm 6 mps 758 mmHg 76%
    07:00 +15°C° 0 mm 7 mps 758 mmHg 71%
    08:00 +16°C° 0 mm 7 mps 758 mmHg 67%
    09:00 +17°C° 0 mm 7 mps 757 mmHg 62%
    10:00 +20°C° 0 mm 7 mps 757 mmHg 57%
    11:00 +22°C° 0 mm 7 mps 757 mmHg 52%
    12:00 +23°C° 0 mm 7 mps 757 mmHg 47%
    13:00 +24°C° 0 mm 7 mps 756 mmHg 45%
    14:00 +26°C° 0 mm 7 mps 756 mmHg 44%
    15:00 +27°C° 0 mm 7 mps 756 mmHg 42%
    16:00 +24°C° 0 mm 7 mps 756 mmHg 45%
    17:00 +23°C° 0 mm 7 mps 755 mmHg 47%
    18:00 +22°C° 0 mm 6 mps 755 mmHg 49%
    19:00 +22°C° 0 mm 6 mps 755 mmHg 52%
    20:00 +21°C° 0 mm 6 mps 755 mmHg 55%
    21:00 +20°C° 0 mm 6 mps 755 mmHg 58%
    22:00 +20°C° 0 mm 6 mps 755 mmHg 62%
    23:00 +19°C° 0 mm 6 mps 755 mmHg 65%
    Show more